Wenatchee, WA
on Saturday, December 1, 2012

Saturday
Previous Day Next Day
Daily Summary
 ActualAverageRecord
Temperature
Mean Temperature °F 28°F  
Max Temperature 54°F 34°F 62°F (1972)
Min Temperature 38°F 23°F -4°F (1985)
Degree Days
Heating Degree Days 19 37  
Month to date heating degree days 19 37  
Since 1 July heating degree days 1178 1919  
Cooling Degree Days 0 0  
Month to date cooling degree days 0 0  
Year to date cooling degree days 888 249  
Moisture
Dew Point 36°F   
Average Humidity 67    
Maximum Humidity 92    
Minimum Humidity 41    
Precipitation
Precipitation 0.02 in 0.09 in 0.41 in (1966)
Month to date precipitation 0.02 0.09  
Year to date precipitation 7.53 14.64  
Snow
Snow 0.00 in 0.40 in in ()
Month to date snowfall 0.4  
Since 1 July snowfall 8.3  
Snow Depth in   
Wind
Wind Speed 8 mph   
Max Wind Speed 18 mph   
Max Gust Speed 22 mph   
Visibility 7 miles   
Events Fog , Rain   

Key: T is trace of precipitation, MM is missing value
Source: NWS Daily Summary
Time(PST)TemperatureDew PointHumidity Pressure Visibility Wind DirectionWind SpeedGust SpeedPrecipitationEvents Conditions
12:04 AM 39.2°F 37.4°F 93% 29.49 in 3.0 miles NE 3.5 mph - N/A   Mostly Cloudy
12:55 AM 39.9°F 37.0°F 89% 29.51 in 5.0 miles North 4.6 mph - N/A   Overcast
1:22 AM 39.2°F 37.4°F 93% 29.49 in 5.0 miles Calm Calm - N/A   Overcast
1:55 AM 39.0°F 36.0°F 89% 29.51 in 2.5 miles SE 3.5 mph - 0.00 in   Mostly Cloudy
2:02 AM 39.2°F 37.4°F 93% 29.48 in 1.2 miles Calm Calm - N/A   Mostly Cloudy
2:04 AM 39.2°F 35.6°F 87% 29.48 in 1.0 miles Calm Calm - N/A   Mostly Cloudy
2:10 AM 39.2°F 35.6°F 87% 29.48 in 0.5 miles Variable 3.5 mph - N/A Fog Fog
2:21 AM 39.2°F 35.6°F 87% 29.46 in 1.0 miles West 5.8 mph - N/A   Mostly Cloudy
2:26 AM 39.2°F 37.4°F 93% 29.46 in 2.0 miles SW 4.6 mph - N/A   Mostly Cloudy
2:36 AM 39.2°F 37.4°F 93% 29.47 in 3.0 miles West 8.1 mph - N/A   Overcast
2:43 AM 39.2°F 37.4°F 93% 29.49 in 4.0 miles WSW 11.5 mph 17.3 mph N/A   Overcast
2:55 AM 39.9°F 36.0°F 86% 29.48 in 5.0 miles North 9.2 mph - N/A   Overcast
3:53 AM 39.2°F 37.4°F 93% 29.44 in 4.0 miles ENE 8.1 mph 17.3 mph N/A   Overcast
5:55 AM 39.9°F 36.0°F 86% 29.49 in 10.0 miles Calm Calm - N/A   Clear
6:55 AM 37.9°F 34.0°F 86% 29.53 in 7.0 miles NW 6.9 mph - N/A   Scattered Clouds
7:55 AM 39.9°F 36.0°F 86% 29.57 in 8.0 miles ENE 6.9 mph - 0.02 in   Scattered Clouds
8:55 AM 42.1°F 36.0°F 79% 29.60 in 10.0 miles Calm Calm - N/A   Clear
9:55 AM 48.9°F 39.0°F 69% 29.63 in 10.0 miles East 3.5 mph - N/A   Clear
10:55 AM 51.1°F 37.0°F 59% 29.63 in 10.0 miles ESE 4.6 mph - N/A   Partly Cloudy
11:55 AM 51.1°F 35.1°F 54% 29.63 in 10.0 miles SE 4.6 mph - N/A   Clear
1:55 PM 54.0°F 30.9°F 41% 29.62 in 10.0 miles SE 13.8 mph - N/A   Partly Cloudy
2:55 PM 51.1°F 32.0°F 48% 29.61 in 10.0 miles ESE 4.6 mph - N/A   Clear
3:55 PM 50.0°F 33.1°F 52% 29.61 in 10.0 miles ESE 11.5 mph - N/A   Clear
4:55 PM 48.0°F 33.1°F 56% 29.61 in 10.0 miles East 12.7 mph - N/A   Partly Cloudy
5:55 PM 48.0°F 34.0°F 58% 29.60 in 10.0 miles ESE 11.5 mph 20.7 mph N/A   Mostly Cloudy
6:55 PM 48.9°F 32.0°F 52% 29.57 in 10.0 miles ESE 11.5 mph - N/A   Mostly Cloudy
7:55 PM 48.0°F 33.1°F 56% 29.55 in 10.0 miles East 12.7 mph - N/A   Mostly Cloudy
8:55 PM 46.9°F 34.0°F 61% 29.53 in 10.0 miles ESE 10.4 mph - N/A   Overcast
9:55 PM 46.0°F 34.0°F 63% 29.53 in 10.0 miles East 9.2 mph - N/A   Overcast
10:55 PM 44.1°F 37.0°F 76% 29.49 in 10.0 miles East 10.4 mph - 0.00 in Rain Light Rain
11:55 PM 44.1°F 37.0°F 76% 29.42 in 10.0 miles ESE 8.1 mph - 0.00 in   Overcast
Moon Phase
Dec. 01 Dec. 06 Dec. 13 Dec. 20 Dec. 28
Sunrise:07:28 AM (PST) Moon Rise:07:10 PM (PST)12/1
Sunset:04:11 PM (PST) Moon Set:09:41 AM (PST)12/1

Copyright © 2014 The Weather Underground, Inc.